Aérodrome :
LOGIN :

S'inscrire | Disclaimer

   EN    FR    IT 

 










Légende :    VFR   VFR Marginal   IFR   IFR Intensif   IFR Très Intensif
Visi : 
Plafond : 
>= 8 km
>= 3000ft
5 à 8 km
1000 à 3000 ft
1500m à 5 km
500 à 1000 ft
800 à 1500m
200 à 500 ft
< 800m
< 200 ft
Symboles :   Orages  Brouillard  Fortes neiges  Fortes précipitations  Vent > 20 kt
SIGMETs :   Divers  Orages  Givrage  Turbulence  Onde Orograph.  Cendres Volcan.






- Altitude de l'aérodrome : 939 ft


LKKB - Kbely Air Base

DERNIER METAR :
  • 310630Z 32007KT 300V360 CAVOK 11/05 Q1019 NOSIG

METARs EXPIRÉS :
  • 310600Z 30009KT 280V340 CAVOK 10/05 Q1019 NOSIG
  • 310530Z 29009KT CAVOK 10/05 Q1018 NOSIG
  • 310500Z 29008KT CAVOK 10/05 Q1018 NOSIG
  • 310430Z 30006KT CAVOK 09/04 Q1018 NOSIG

TAF TAF LKKB
Valide du 31 à 06h jusqu'au 01 à 06h UTC


310500Z 3106/0106 31005KT CAVOK
BECMG 3107/3110 35010G20KT BKN040
PROB30
TEMPO 3108/3114 RA BKN020
BECMG 3116/3118 35007KT CAVOK



MET'MAP, la Météo Aéronautique d'un coup d'oeil ! - Copyright ORBIFLY Décembre 2007 - Disclaimer

ORBIFLY MET'MAP TEAM :

Programmation & Développement : Alexandra Zaïnal
Sur une idée originale de : Baudouin d'Aumeries
Assistance à la programmation : Marc-Olivier Méhu
Soutien technique & logistique : Manuel Goepfert

Contact : metmap@orbifly.com




SOURCES & CREDITS :

   NOAA